This demonstration page uses our WeatherBlox Daily Observations layout. Learn more.

Left ArrowRight Arrow

40.92501, -98.34201

Hourly Observations for July 18, 2021

Temp ( °F °C ) Dew Point ( °F °C ) Humidity (%) Winds ( mph kmh ) Pressure ( in mb ) Visibility ( mi km ) Precip ( " mm )
12:53 am 00:53 Clear 70 21.1 67 19.4 90 90 ESE 7 11 30.15 1021 9 14 0.00 0.00
1:53 am 01:53 Clear 70 21.1 66 18.9 87 87 SE 6 9 30.14 1021 8 13 0.00 0.00
2:53 am 02:53 Clear with Mist and Fog 68 20 65 18.3 90 90 SE 3 6 30.15 1021 6 10 0.00 0.00
3:53 am 03:53 Clear 68 20 64 17.8 87 87 SE 5 7 30.15 1021 8 13 0.00 0.00
4:53 am 04:53 Clear with Mist and Fog 67 19.4 64 17.8 91 91 ESE 7 11 30.14 1021 6 10 0.00 0.00
5:33 am 05:33 Mostly Cloudy with Mist and Fog 67 19.4 64 17.8 91 91 ESE 6 9 30.12 1020 6 10 0.00 0.00
5:46 am 05:46 Mostly Cloudy with Mist and Fog 67 19.4 64 17.8 91 91 ESE 6 9 30.12 1020 6 10 0.00 0.00
5:53 am 05:53 Mostly Cloudy with Mist and Fog 67 19.4 64 17.8 91 91 SE 5 7 30.15 1021 6 10 0.00 0.00
6:21 am 06:21 Partly Cloudy with Mist and Fog 67 19.4 64 17.8 91 91 SE 5 7 30.13 1020 4 6 0.00 0.00
6:45 am 06:45 Mostly Cloudy with Mist and Fog 67 19.4 65 18.3 93 93 SE 5 7 30.14 1021 4 6 0.00 0.00
6:53 am 06:53 Mostly Cloudy with Mist and Fog 67 19.4 65 18.3 93 93 ESE 5 7 30.17 1022 3 5 0.00 0.00
7:16 am 07:16 Mostly Cloudy with Mist and Fog 68 20 65 18.3 90 90 ESE 5 7 30.14 1021 4 6 0.00 0.00
7:23 am 07:23 Mostly Cloudy with Mist and Fog 68 20 65 18.3 90 90 E 5 7 30.14 1021 4 6 0.00 0.00
7:53 am 07:53 Cloudy with Mist and Fog 69 20.6 66 18.9 90 90 ESE 9 15 30.18 1022 3 4 0.00 0.00
8:04 am 08:04 Cloudy with Mist and Fog 68 20 66 18.9 93 93 SSE 5 7 30.16 1021 1 2 0.00 0.00
8:12 am 08:12 Cloudy with Fog 68 20 66 18.9 93 93 SSE 6 9 30.16 1021 1 1 0.00 0.00
8:21 am 08:21 Cloudy with Fog 69 20.6 66 18.9 90 90 S 6 9 30.17 1022 0 0 0.00 0.00
8:35 am 08:35 Mostly Cloudy with Fog 69 20.6 67 19.4 93 93 S 5 7 30.18 1022 0 0 0.00 0.00
8:53 am 08:53 Mostly Cloudy with Fog 69 20.6 67 19.4 93 93 S 5 7 30.21 1023 N/A 0.00 0.00
9:13 am 09:13 Mostly Cloudy with Fog 69 20.6 67 19.4 93 93 SSE 7 11 30.17 1022 0 0 0.00 0.00
9:33 am 09:33 Cloudy with Fog 70 21.1 67 19.4 90 90 SE 5 7 30.16 1021 1 1 0.00 0.00
9:44 am 09:44 Cloudy with Mist and Fog 70 21.1 67 19.4 90 90 SSE 12 19 30.14 1021 2 3 0.00 0.00
9:53 am 09:53 Cloudy with Mist and Fog 70 21.1 68 20 93 93 SSE 7 11 30.19 1022 3 5 0.00 0.00
10:10 am 10:10 Cloudy with Mist and Fog 70 21.1 67 19.4 90 90 SSE 10 17 30.14 1021 2 3 0.00 0.00
10:29 am 10:29 Cloudy with Mist and Fog 70 21.1 68 20 93 93 SE 10 17 30.13 1020 3 5 0.00 0.00
10:39 am 10:39 Cloudy with Mist and Fog 70 21.1 68 20 93 93 ESE 13 20 30.14 1021 5 8 0.00 0.00
10:53 am 10:53 Cloudy with Mist and Fog 71 21.7 67 19.4 87 87 ESE 15 24 30.18 1022 5 8 0.00 0.00
11:53 am 11:53 Cloudy 74 23.3 68 20 82 82 SE 13 20 30.19 1023 7 11 0.00 0.00
12:15 pm 12:15 Cloudy 76 24.4 69 20.6 79 79 SE 13 20 30.13 1020 8 13 0.00 0.00
12:40 pm 12:40 Mostly Cloudy 78 25.6 68 20 71 71 SE 13 20 30.12 1020 10 16 0.00 0.00
12:53 pm 12:53 Mostly Cloudy 78 25.6 68 20 71 71 ESE 13 20 30.20 1023 10 16 0.00 0.00
1:30 pm 13:30 Mostly Cloudy 80 26.7 69 20.6 69 69 SE 13 20 30.12 1020 10 16 0.00 0.00
1:53 pm 13:53 Mostly Cloudy 80 26.7 68 20 67 67 SSE 10 17 30.18 1022 10 16 0.00 0.00
2:00 pm 14:00 Partly Cloudy 81 27.2 68 20 65 65 SSE 14 22 30.10 1019 10 16 0.00 0.00
2:53 pm 14:53 Partly Cloudy 82 27.8 68 20 63 63 ESE 12 19 30.17 1022 10 16 0.00 0.00
3:53 pm 15:53 Partly Cloudy 82 27.8 68 20 63 63 SE 8 13 30.16 1022 10 16 0.00 0.00
4:53 pm 16:53 Partly Cloudy 82 27.8 68 20 63 63 SE 12 19 30.16 1021 10 16 0.00 0.00
5:53 pm 17:53 Partly Cloudy 81 27.2 68 20 65 65 ESE 13 20 30.15 1021 10 16 0.00 0.00
6:53 pm 18:53 Mostly Sunny 80 26.7 67 19.4 64 64 E 10 17 30.15 1021 10 16 0.00 0.00
7:53 pm 19:53 Sunny 77 25 67 19.4 71 71 ESE 7 11 30.16 1021 10 16 0.00 0.00
8:53 pm 20:53 Sunny 74 23.3 67 19.4 79 79 ESE 6 9 30.16 1021 9 14 0.00 0.00
9:53 pm 21:53 Clear 72 22.2 65 18.3 79 79 ESE 5 7 30.18 1022 10 16 0.00 0.00
10:53 pm 22:53 Clear 71 21.7 63 17.2 76 76 SE 7 11 30.20 1023 9 14 0.00 0.00
11:53 pm 23:53 Clear 69 20.6 63 17.2 81 81 SE 7 11 30.21 1023 8 13 0.00 0.00

Powered by AerisWeather